www.pogodaiklimat.ru

Погода и климат >> Архив погоды >> Канада >> Нунавут >> Талойоак


ПОГОДА в Талойоаке

  • Прогноз погоды в Талойоаке
  • Монитор погоды в Талойоаке

АРХИВ ПОГОДЫ в Талойоаке

Время (UTC), дата Ветер
(напр.,м/с)
 
Видим.   Явления Облачность Т
(С)
Тd
(С)
f
(%)
Тe
(С)
Тes
(С)
Комфортность P
(гПа)
Po
(гПа)
Тmin
(С)
Tmax
(С)
R
(мм)
R24
(мм)
S
(см)
03 14.05 В 6 24 км 10/10 300 м
[]
-1.5 -5.0 77 -8 -8 1021.5 1017.9
06 14.05 В 5 24 км 10/10 300 м
[Sc]
-2.7 -5.4 82 -9 -9 1022.3 1018.7 151
09 14.05 В 4 24 км 10/10 300 м
[]
-3.1 -5.5 83 -9 -9 1023.3 1019.6
12 14.05 СВ 4 24 км 10/10 300 м
[Sc]
-3.6 -5.9 84 -10 -10 1024.2 1020.5 -3.6 23
15 14.05 СВ 4 24 км 10/10 200 м
[]
-2.5 -5.0 83 -9 -9 1024.1 1020.4
18 14.05 СВ 4 24 км слаб. снег 10/10 200 м
[Sc]
-0.4 -4.0 77 -6 -6 1023.7 1020.1 -3.6 -0.4 0.0 23
21 14.05 С 5 24 км 10/10 300 м
[]
+0.4 -2.3 82 -6 -6 1023.7 1020.1
03 15.05 С 5 24 км ясно -3.1 -4.8 88 -10 -10 1023.4 1019.7
12 15.05 С 4 24 км {снег} 9/9 200 м
[Sc]
-6.3 -8.0 88 -13 -12 1024.3 1020.6 0.0 22
15 15.05 СВ 5 24 км 6/6 300 м
[]
-2.7 -6.4 76 -9 -8 1023.5 1019.8
18 15.05 СЗ 5 24 км ясно -1.6 -4.9 78 -8 -3 1022.4 1018.7 23
21 15.05 С 9 24 км ясно -0.2 -4.1 75 -8 -7 1022.2 1018.5
00 16.05 С 8 24 км ясно -1.5 -4.9 78 -9 -9 1022.6 1018.9 0.0 22
03 16.05 С 7 24 км ясно -4.5 -7.2 81 -12 -12 1022.6 1018.9
06 16.05 С 3 24 км ясно -9.4 -11.3 86 -15 -15 1023.0 1019.3 231
09 16.05 С 3 24 км ясно -11.5 -13.5 85 -17 -17 1023.4 1019.7
12 16.05 С 5 24 км ясно -9.1 -12.0 79 -17 -16 1023.9 1020.2 -12.7 22
15 16.05 С 2 24 км ясно -6.6 -10.4 74 -11 -5 1024.2 1020.5
18 16.05 С 2 24 км ясно -4.5 -9.2 70 -9 +1 1024.6 1020.9 22
21 16.05 С 1 24 км ясно -2.5 -8.4 64 -4 +4 1024.5 1020.8
00 17.05 С 3 24 км ясно -3.2 -7.5 72 -8 -5 1025.2 1021.5
06 17.05 ЮЗ 1 24 км ясно -8.7 -10.3 88 -11 -11 1026.8 1023.1 22
09 17.05 С 1 24 км ясно -10.5 -12.4 86 -11 -11 1027.9 1024.2
12 17.05 С 1 1600 м ясно -11.0 -12.9 86 -11 -9 1029.1 1025.4 22
15 17.05 С 1 24 км ясно -8.7 -10.4 87 -9 -1 1029.6 1025.9
18 17.05 Ю 2 24 км 4/3 100 м
[St]
-7.9 -9.6 88 -12 -6 1030.3 1026.6 -7.7 22
21 17.05 Ю 3 24 км 8/8 100 м
[]
-6.2 -7.9 88 -12 -11 1030.7 1027.0
00 18.05 Ю 3 24 км 4/1 200 м
[St Cs]
-5.6 -8.2 82 -11 -9 1031.1 1027.4 -12.3 -5.5
03 18.05 Ю 1 24 км 1/1 200 м
[]
-8.0 -9.5 89 -10 -10 1031.1 1027.4
06 18.05 Ю 2 1600 м дымка 1/1 50 м
[Frnb Ci sp]
-11.0 -12.8 87 -15 -15 1031.6 1027.9 -12.3 -5.5 22
09 18.05 Ю 2 200 м н/о -11.9 -14.0 84 -17 -17 1032.2 1028.5
12 18.05 800 м туман н/о -11.8 -13.9 84 -16 -15 1032.7 1029.0 -12.6 -5.5 22
15 18.05 Ю 1 800 м 5/5 100 м
[]
-11.2 -13.2 85 -14 -10 1032.6 1028.9
18 18.05 4800 м {снег, туман} н/о -10.2 -12.1 86 -14 -13 1032.4 1028.7 -12.6 -10.0 22
21 18.05 ЮЗ 2 12 км 10/10 100 м
[]
-8.5 -10.2 87 -13 -13 1032.4 1028.7
00 19.05 ЮЗ 2 24 км 9/9 100 м
[Sc]
-7.8 -9.3 89 -11 -11 1032.1 1028.4 -12.6 -7.7
03 19.05 Ю 2 24 км ясно -9.1 -10.8 87 -14 -13 1031.5 1027.8
06 19.05 В 2 6000 м дымка 8/8 100 м
[Frnb]
-8.5 -10.1 88 -13 -13 1031.8 1028.1 -12.6 -7.6 22
09 19.05 З 2 4800 м 8/8 50 м
[]
-9.9 -11.7 87 -14 -14 1032.0 1028.3
12 19.05 ЮЗ 3 3200 м дымка 8/8 <50 м
[Frnb]
-10.7 -12.5 87 -17 -16 1032.2 1028.5 -10.8 -7.6 22
15 19.05 Ю 3 16 км 10/10 100 м
[]
-9.9 -11.7 87 -16 -16 1031.9 1028.2
18 19.05 Ю 3 24 км слаб. снег 10/10 600 м
[Sc]
-8.4 -10.0 88 -14 -14 1031.3 1027.6 -10.8 -8.2 22
21 19.05 Ю 4 24 км 10/10 600 м
[]
-7.0 -8.5 89 -13 -13 1030.6 1026.9
00 20.05 ЮЗ 2 24 км {снег} 10/10 300 м
[Sc]
-7.1 -9.4 84 -12 -12 1029.9 1026.2 -10.8 -6.7
03 20.05 ЮВ 2 24 км 9/9 300 м
[]
-7.2 -10.2 79 -11 -11 1028.5 1024.8
06 20.05 Ю 3 24 км 9/9 300 м
[Sc]
-7.5 -10.0 82 -13 -13 1027.8 1024.1 -10.8 -6.7 22
09 20.05 Ю 1 24 км 9/9 200 м
[]
-7.8 -10.3 82 -10 -10 1026.9 1023.2
12 20.05 В 5 24 км 9/9 200 м
[Sc]
-8.0 -10.3 83 -15 -15 1025.8 1022.1 -8.1 -6.7 22
15 20.05 В 4 24 км 10/10 100 м
[]
-8.1 -10.3 84 -15 -15 1025.0 1021.3
18 20.05 В 4 24 км слаб. снег 10/10 200 м
[Sc]
-6.9 -10.4 76 -13 -13 1024.6 1020.9 -8.5 -6.8 0.0 22
21 20.05 В 3 24 км 9/9 200 м
[]
-6.3 -10.2 74 -12 -11 1023.6 1019.9
00 21.05 В 5 24 км слаб. снег 9/9 200 м
[Sc]
-6.8 -10.1 77 -14 -14 1023.5 1019.8 -8.5 -6.1 0.0 22

 

Местоположение метеостанции Талойоак (Нунавут, Канада): широта 69.55 долгота -93.58 высота над уровнем моря 28 м.

В архиве по умолчанию представлена погода в Талойоаке за последнюю неделю. Архивные данные за месяц целиком и за предыдущие месяцы, начиная с января 2011 года, Вы можете получить, выбрав интересующий диапазон дат из раскрывающегося списка и нажав кнопку "Ввод!".


*Определитесь, кто Вы:
робот инопланетянин человек

Внимание! Время в таблицах - всемирное. Для получения местного времени необходимо прибавить поправку, которая равна -6 ч.

Смотрите также архив погоды в соседних городах и на ближайших метеорологических станциях:

Погода в Шеперд-Бее (Нунавут, Канада) (81 км)
Погода в Джойа Хейвен (Нунавут, Канада) (136 км)
Погода в Кугааруке (Нунавут, Канада) (188 км)
Погода в Кам Фор (Нунавут, Канада) (198 км)
Погода на Острове Хат (Нунавут, Канада) (291 км)
Погода в Глеичене (Альберта, Канада) (405 км)
Погода в Вейджер Бэй (Нунавут, Канада) (444 км)
Погода в Кеймбридж-Бее (Нунавут, Канада) (454 км)
Погода в Кембридж Бэй (Нунавут, Канада) (454 км)
Погода в Арктик Бей (Нунавут, Канада) (490 км)

Пояснения к столбцам:

Ветер - указаны скорость ветра в м/с - средняя за 10 мин, порывы в срок и между сроками (в фигурных скобках) и направление, откуда дует ветер: С - северный, СВ - северо-восточный, В - восточный, ЮВ - юго-восточный, Ю - южный, ЮЗ - юго-западный, З - западный, СЗ - северо-западный.
Видимость - горизонтальная дальность видимости в метрах или километрах. При видимости от 1 до 10 км при отсутствии осадков обычно наблюдается дымка, при ухудшении видимости до 1 км и менее - туман. В сухую погоду видимость может ухудшаться дымом, пылью или мглою.
Явления - указаны атмосферные явления, наблюдавшиеся в срок или в последний час перед сроком; фигурными скобками обозначены явления, наблюдавшиеся между сроками (за 1-3 часа до срока); квадратными скобками обозначены град или гололедные отложения с указанием их диаметра в мм.
Облачность - указаны через наклонную черту общая и нижняя облачность в баллах и высота нижней границы облаков в метрах; квадратными скобками обозначены формы облаков: Ci - перистые, Cs - перисто-слоистые, Cc - перисто-кучевые, Ac - высококучевые, As - высокослоистые, Sc - слоисто-кучевые, Ns - слоисто-дождевые, Cu - кучевые, Cb - кучево-дождевые. Подробнее классификацию облаков см. в Атласе облаков (PDF).
T - Температура воздуха - температура, измеренная на высоте 2 м над землей.
Td - Температура точки росы - температура, при понижении до которой содержащийся в воздухе водяной пар достигнет насыщения.
f - Относительная влажность воздуха - влажноcть воздуха, измеренная на высоте 2 м над землей.
Te - Эффективная температура - температура, которую ощущает одетый по сезону человек в тени. Характеристика душности погоды. При расчете учитывается влияние влажности воздуха и скорости ветра на теплоощущения человека.
Tes - Эффективная температура на солнце - температура, которую ощущает человек, с поправкой на солнечный нагрев. Характеристика знойности погоды. Зависит от высоты солнца над горизонтом, облачности и скорости ветра. Ночью, в пасмурную погоду, а также при ветре 12 м/с и более поправка равна нулю.
P - Атмосферное давление - приведенное к уровню моря атмосферное давление.
Po - Атмосферное давление - измеренное на уровне метеостанции атмосферное давление.
Tmin - Минимальная температура - минимум температуры воздуха на высоте 2 м над землей.
Tmax - Максимальная температура - максимум температуры воздуха на высоте 2 м над землей.
R - Количество осадков - Количество выпавших осадков за период времени, мм. При наведении курсора мыши на число - период времени, за который выпало указанное количество осадков.
R24 - Количество осадков - Количество выпавших осадков за 24 часа, мм.
S - Снежный покров - Высота снежного покрова, см. При наведении курсора мыши на число - состояние снежного покрова и степень покрытия местности в баллах.